Regional Weather Roundup
Issued by NWS Upton, NY

Current Version | Previous Version | Text Only | Print | Product List | Glossary On
Versions: 1 2 3 4 5 6 7 8 9 10 11 12 13 14 15 16 17 18 19 20 21 22 23 24 25 26 27
000
ASUS41 KOKX 261509
RWROKX

REGIONAL WEATHER ROUNDUP
NATIONAL WEATHER SERVICE NEW YORK NY
1100 AM EDT MON JUN 26 2017

NOTE: "FAIR" INDICATES FEW OR NO CLOUDS BELOW 12,000 FEET WITH NO
SIGNIFICANT WEATHER AND/OR OBSTRUCTIONS TO VISIBILITY.

NYZ071-072-176-178-NJZ106-104-261600-
NEW YORK CITY METRO AREA

CITY           SKY/WX    TMP DP  RH WIND       PRES   REMARKS
Central Park   SUNNY     73  49  42 VRB3      30.06F
Bronx Bot Gard   N/A     73  48  40 W1        30.04F
LaGuardia APRT NOT AVBL
Kennedy INTL   MOSUNNY   75  55  50 SW10      30.04F
Breezy Point     N/A     68 N/A N/A S7          N/A
Newark/Liberty MOSUNNY   76  47  35 NW9       30.03F
Teterboro      NOT AVBL
$$

NYZ177-179-078>081-261600-
LONG ISLAND NEW YORK

CITY           SKY/WX    TMP DP  RH WIND       PRES   REMARKS
Jones Beach      N/A     70 N/A N/A SW3         N/A
Matinecock PT  NOT AVBL
Farmingdale    NOT AVBL
MacArthur/ISP  MOSUNNY   75  50  41 W14       30.03S
Shirley        NOT AVBL
Mt Sinai Harb    N/A    N/A N/A N/A W5          N/A
Westhampton    NOT AVBL
East Hampton   FAIR      72  54  53 W3        30.02S
Montauk          N/A     73  52  47 VRB6      30.04
$$

NYZ052-065-067-261600-
HUDSON VALLEY

CITY           SKY/WX    TMP DP  RH WIND       PRES   REMARKS
White Plains   NOT AVBL
Larchmont Harb   N/A     70 N/A N/A W7          N/A
Croton O-T Hud   N/A     72 N/A N/A NW7         N/A
Newburgh       MOSUNNY   72  55  56 W9        30.05S
Montgomery     NOT AVBL
Poughkeepsie   NOT AVBL
Albany         PTSUNNY   69  53  56 W13       30.00F
$$

NJZ001-105-106-008-010-013-015-019>022-104-261600-
NEW JERSEY

CITY           SKY/WX    TMP DP  RH WIND       PRES   REMARKS
Newark/Liberty MOSUNNY   76  47  35 NW9       30.03F
Teterboro      NOT AVBL
Caldwell       NOT AVBL
Somerville     NOT AVBL
Linden         FAIR      75  46  35 NW3G17    30.04S
Perth Amboy      N/A     72 N/A N/A NW13        N/A
Sussex         NOT AVBL
Andover          N/A     72  51  47 VRB5      30.05F
Trenton        SUNNY     75  50  41 NW7       30.05S
Millville      NOT AVBL
Atlantic City  SUNNY     78  52  40 VRB5      30.06
Wrightstown    SUNNY     75  49  39 N6        30.06S
Toms River     NOT AVBL
Belmar         NOT AVBL
$$

PAZ047>061-062-071-261600-
EASTERN PENNSYLVANIA

CITY           SKY/WX    TMP DP  RH WIND       PRES   REMARKS
Philadelphia   NOT AVBL
Allentown      NOT AVBL
Scranton       NOT AVBL
$$

CTZ002-004>006-009-010-012-RIZ004-006-007-MAZ004-011-015-261600-
SOUTHERN NEW ENGLAND
 IN CT

CITY           SKY/WX    TMP DP  RH WIND       PRES   REMARKS
Bradley INTL   PTSUNNY   75  51  43 W10       30.01S
Hartford       MOSUNNY   73  52  47 VRB5      30.01S
Danbury        MOSUNNY   72  50  46 W10       30.04S
Wtrbury/Oxford MOSUNNY   70  50  49 NW7       30.04S
Bridgeport     SUNNY     73  57  56 SW13      30.02S
Meriden        SUNNY     73  51  46 VRB6      30.01S
New Haven      MOSUNNY   70  57  64 SW8       30.02F
Chester        FAIR      72  50  46 VRB7      30.02S
Groton         SUNNY     70  56  61 SW12      30.01S
Wilimantic     MOSUNNY   74  51  44 SW7       30.01F

 IN RI

CITY           SKY/WX    TMP DP  RH WIND       PRES   REMARKS
Providence     MOSUNNY   73  51  46 NW8G18    30.01S
Block Island   SUNNY     72  53  51 W9        30.03S
Westerly       SUNNY     75  53  46 SW5       30.02S
 IN MA

CITY           SKY/WX    TMP DP  RH WIND       PRES   REMARKS
Boston         MOSUNNY   73  49  42 NW10G20   29.98S
Worcester      MOSUNNY   66  49  54 W13       30.02S
Westfield      PTSUNNY   71  52  50 W12       30.01S
Provincetown   SUNNY     69  53  56 NW10      30.00R
Nantucket      SUNNY     74  50  42 NW8       30.00S
$$

ANZ330-335-338-340-345-350-353-355-261600-
COASTAL MARINE OBSERVATIONS


STATION/POSITION TIME  SKY/WX   TEMP    WIND        PRES    VSBY  WAVE
                                AIR SEA DIR/SP/G                  HT/PER
                 (UTC)          (F)     (DEG/KT/KT) (MB)    (MI)  (FT/S)
NY HARB ENTRANCE 1350            67 68  260/  6/  6 1017.3          2/ 7
20 S FIRE ISLAND 1450            68 70  260/  6/  6 1017.1          2/ 8
GREAT SOUTH BAY  1415            71 77  250/  6/  8   N/A
23 SSW MONTAUK P 1350            65 65              1017.1          2/ 7
15 E BARNEGAT LI 1430               66                N/A           2/ 7
HUDSON CANYON    1350            69 67   CALM  /  2 1017.2          2/ 8
KINGS POINT      1430            70 66   10/  4/  9 1016.9
EXECUTION ROCKS  1330            71     320/  4/  8   N/A
CENTRAL LI SOUND NOT AVBL
EASTERN LI SOUND NOT AVBL
ROBBINS REEF     1424                   300/ 12/ 15 1017.7
$$


>>>>>>>>>>>>>>>>>>>>>>>>>>>> KEY <<<<<<<<<<<<<<<<<<<<<<<<<<<
>                                                          <
>     SKY/WX - Sky Condition/Present Weather               <
>     TMP    - Temperature in Fahrenheit                   <
>     DP     - Dew Point in Fahrenheit                     <
>     RH     - Relative Humidity in Percent                <
>     WIND   - Direction (from) and Speed in MPH           <
>     PRES   - Mean Sea Level Pressure (inches of Hg)      <
>     WCI    - Wind Chill Index                            <
>     VSB    - VISIBILITY IN MILES                         <
>     HX     - HEAT INDEX                                  <
>     TC     - TEMPERATURE IN CELSIUS                      <
>     VRB    - VARIABLE WIND DIRECTION                     <
>                                                          <
>>>>>>>>>>>>>>>>>>>>>>>>>>>> KEY <<<<<<<<<<<<<<<<<<<<<<<<<<<




USA.gov is the U.S. government's official web portal to all federal, state and local government web resources and services.